Dewpoint
21 19 16 15 17 16 18 17 16 17 17 14 15 16 18 20 19 18 22 41 41 41 43 42 43 43 45 46 47 48 48 48 42 61 62 61 62 63 63 63 63 64 64 63
18 17 18 18 17 15 15 14 12 14 16 17 18 18 19 19 19 22 39 39 41 42 41 41 42 43 44 44 45 46 48 48 48 54 61 61 61 63 63 64 63 64 63 62
16 19 20 17 15 14 15 13 17 17 18 20 18 16 16 17 33 41 41 40 42 42 40 40 41 41 42 42 43 44 46 47 49 51 60 62 62 63 63 63 63 63 63 62
22 22 19 18 17 18 16 19 19 19 18 14 18 10 14 21 27 37 37 41 41 40 40 39 40 40 40 41 41 42 44 47 49 52 58 60 59 58 61 62 63 63 63 62
24 22 22 21 20 21 19 22 20 20 19 19 18 15 16 24 28 32 37 41 40 40 38 38 38 38 38 39 39 41 43 45 49 54 56 61 60 60 61 62 62 62 62 62
21 20 21 22 22 22 21 21 23 23 21 15 15 13 11 16 27 32 37 41 39 38 37 37 37 37 37 37 39 40 42 44 47 55 57 61 60 60 61 60 61 62 61 57
17 17 18 19 16 20 19 17 10 12 15 9 17 16 12 19 32 37 40 39 37 36 35 34 34 35 36 36 37 40 41 43 46 51 59 61 60 60 61 60 60 59 57 56
13 13 21 19 22 19 18 16 9 7 10 11 19 15 17 31 40 40 38 36 35 34 33 33 33 34 35 36 37 38 40 42 45 49 61 61 61 61 61 61 57 57 57 59
18 19 23 18 18 22 21 17 23 17 19 14 13 18 27 36 40 37 36 35 34 33 32 32 32 33 34 35 36 38 39 41 45 49 61 61 60 59 59 61 61 59 60 60
14 11 20 16 21 11 21 25 24 24 12 7 13 17 19 33 35 35 34 34 33 32 31 31 31 32 33 35 36 37 38 40 44 49 60 59 59 59 59 59 59 59 59 59
20 10 11 12 12 9 2 10 27 26 25 17 12 17 33 33 34 33 33 33 32 31 31 30 31 31 32 33 35 35 36 39 43 45 57 58 58 58 58 58 58 58 58 58
20 15 5 11 19 20 23 26 25 11 17 23 23 20 34 35 34 33 32 32 32 31 31 30 30 31 31 32 33 33 35 37 41 42 49 57 58 58 58 57 58 58 57 57
15 9 -2 7 16 17 16 18 18 17 20 14 16 16 34 34 32 32 32 32 31 30 30 30 30 30 31 31 32 33 34 35 38 40 41 44 45 55 57 57 57 57 56 56
20 15 2 -5 10 16 13 17 17 15 17 12 11 7 6 10 23 30 31 31 30 29 29 29 29 29 30 30 31 31 32 34 35 37 38 38 40 41 47 57 57 57 56 56
19 12 16 15 18 18 17 14 12 9 8 6 -4 3 9 11 19 31 30 29 27 27 28 28 28 29 29 29 30 30 31 32 33 34 35 36 37 37 38 43 44 54 53 51
20 19 18 14 16 16 12 11 10 9 11 14 17 20 23 24 31 30 29 28 28 26 27 27 27 27 28 28 29 29 30 30 31 32 33 35 35 35 35 35 38 38 42 41
15 16 11 3 13 10 3 10 10 20 24 24 22 23 27 30 28 27 27 27 27 26 26 27 27 27 28 28 28 28 29 30 29 30 31 32 34 34 34 33 33 33 34 35
17 15 14 7 12 -6 22 26 27 25 25 27 26 29 30 28 27 27 28 27 27 27 26 27 27 27 28 28 27 27 28 28 28 27 29 30 31 32 33 33 32 32 31 32
19 17 14 10 11 10 23 25 23 23 22 25 24 28 26 26 25 25 28 28 26 26 26 27 27 27 27 27 27 26 25 26 26 26 27 28 29 28 30 31 31 31 30 29
20 20 16 17 12 8 20 22 25 28 19 24 24 24 25 26 23 21 25 26 25 26 26 26 27 27 25 26 26 24 24 24 24 25 26 27 28 27 27 28 29 30 30 28
20 19 17 16 16 18 24 25 26 18 18 24 24 23 28 21 23 23 24 23 24 25 25 25 25 25 27 26 25 24 23 23 24 26 25 26 27 27 27 27 28 28 27 27
21 19 17 17 16 14 25 22 18 23 26 25 24 23 21 21 21 21 21 20 22 22 23 23 23 23 24 26 24 23 23 25 24 24 25 25 25 26 26 26 26 27 28 26
19 23 20 21 19 26 27 25 26 27 24 24 23 23 22 19 18 18 18 19 19 21 21 21 21 21 22 23 24 23 24 24 23 23 23 25 25 25 26 26 25 25 26 26
25 27 23 23 24 25 26 27 26 26 23 24 23 22 21 18 18 17 17 17 17 18 19 19 19 19 20 22 23 24 23 21 22 22 22 23 23 24 25 24 25 25 25 25
22 24 24 23 25 26 26 26 26 25 24 23 23 22 20 18 18 17 17 17 17 17 18 18 18 18 19 20 21 22 24 23 18 19 21 21 21 21 21 24 25 25 27 26
23 22 22 20 25 24 25 27 27 24 23 23 20 19 19 18 17 17 17 17 17 16 16 16 16 16 17 18 19 20 21 22 22 20 17 20 20 20 19 20 21 23 26 26
Wind_Speed
8 13 24 22 19 12 4 4 9 10 13 5 13 12 16 18 10 14 5 1 5 9 13 16 20 18 16 15 21 20 21 22 16 19 21 22 24 24 22 21 22 22 19 21
10 28 18 15 14 13 13 13 14 12 13 7 13 17 18 15 8 4 4 1 4 10 17 20 22 23 24 23 18 24 23 22 19 21 21 23 24 21 21 16 19 22 22 22
23 5 21 21 14 13 11 13 10 11 5 7 7 8 2 2 5 7 5 2 3 9 15 19 22 22 21 24 24 22 27 25 22 21 21 19 18 12 15 21 24 26 25 22
13 15 12 18 18 13 18 15 18 12 3 5 3 8 4 5 2 6 1 4 9 13 15 17 18 21 23 24 24 24 26 26 24 21 24 27 25 25 23 24 19 20 19 19
13 10 19 17 16 17 11 11 14 8 7 2 5 7 2 3 4 4 2 7 11 14 18 20 22 23 23 22 25 24 26 26 23 24 27 27 26 25 18 19 23 22 24 26
16 3 7 9 13 22 8 7 5 3 4 9 15 15 4 5 4 2 2 7 12 18 21 22 22 24 25 24 24 25 27 26 25 26 26 30 30 26 20 23 23 23 23 22
4 14 4 3 4 8 14 8 6 5 7 8 5 11 12 9 4 2 4 9 14 18 21 23 26 26 26 26 26 26 26 27 27 25 22 26 27 27 27 26 24 23 22 23
12 5 1 3 1 6 12 11 8 6 7 3 3 7 3 7 12 13 11 10 14 19 21 23 24 25 24 27 27 28 28 28 26 24 19 17 18 17 19 22 20 20 19 17
6 3 3 8 4 0 5 6 1 2 1 5 8 4 5 13 10 9 11 12 15 17 19 22 24 25 24 26 28 27 28 28 26 27 13 15 16 16 16 18 18 14 9 11
2 5 2 3 2 7 3 3 3 1 6 10 5 6 5 10 9 10 13 14 14 15 18 19 21 24 25 25 26 27 27 26 26 26 8 11 14 16 13 14 14 15 12 11
3 2 1 0 5 1 3 2 4 2 1 5 6 4 3 3 5 6 7 8 11 15 18 18 20 23 23 25 24 25 27 29 30 26 8 8 12 15 15 16 16 18 19 19
1 3 4 2 4 3 1 2 3 5 5 1 3 7 3 6 3 3 4 7 10 13 16 18 21 25 25 27 28 29 28 29 26 23 22 5 4 8 12 14 16 17 21 20
3 2 5 2 2 3 5 5 6 4 3 5 7 4 8 6 3 4 4 6 10 13 17 18 24 25 24 25 25 26 26 27 28 24 23 21 19 6 7 14 16 17 17 22
4 3 2 8 3 4 5 5 3 4 4 5 16 20 20 20 11 4 6 6 8 13 16 19 23 23 22 23 23 23 24 25 27 24 22 21 20 17 15 9 14 17 23 21
3 3 0 1 3 2 4 10 8 9 10 10 12 21 26 21 17 4 2 6 11 14 17 19 22 21 22 24 24 25 26 27 26 23 22 21 17 17 20 16 19 5 18 20
3 4 2 4 7 8 11 15 13 11 12 16 20 28 25 15 9 7 6 6 9 12 15 18 19 21 21 23 24 23 24 24 24 23 25 21 20 19 23 22 24 23 17 19
2 6 4 3 1 4 9 10 10 3 6 12 17 21 16 6 9 6 6 5 7 10 13 16 17 19 20 21 21 23 22 22 24 25 25 24 19 19 19 25 26 26 17 22
6 5 3 2 2 3 4 6 3 4 10 4 13 13 9 12 15 10 9 6 8 10 13 14 16 18 20 20 21 21 21 21 22 24 24 25 23 21 19 23 24 24 20 17
4 4 3 1 2 5 4 5 4 5 5 9 12 8 11 17 18 14 10 11 11 11 12 13 16 16 17 20 20 20 22 22 23 24 24 23 23 23 22 24 20 23 18 19
8 3 2 4 2 3 1 14 9 8 5 13 12 10 13 7 2 5 10 9 12 13 13 15 16 16 19 19 19 20 21 22 24 22 21 21 22 23 24 24 21 18 19 20
5 4 4 5 3 1 7 17 10 3 5 10 12 14 6 7 9 11 9 12 12 12 15 15 16 17 18 17 17 19 19 22 20 19 19 21 21 21 21 21 21 22 21 21
2 3 3 3 4 3 15 3 4 6 6 9 11 13 17 17 13 10 10 12 13 15 16 16 16 17 18 18 19 18 20 17 17 18 20 21 21 20 19 20 20 20 18 21
1 1 1 1 2 4 7 7 6 7 8 9 11 11 13 10 10 12 14 13 14 14 14 15 15 16 18 19 20 20 18 17 16 17 20 20 21 21 20 20 19 18 18 17
2 4 3 4 4 6 8 9 9 10 12 10 11 11 11 14 13 13 12 12 13 14 15 14 16 18 19 19 19 18 18 15 17 18 19 19 20 21 20 19 18 17 16 16
1 2 3 4 7 8 9 8 9 11 11 12 11 11 12 14 13 12 13 13 13 13 14 14 15 15 17 18 19 19 18 16 16 16 16 17 16 18 19 22 20 18 21 17
1 3 3 3 3 5 6 8 9 11 11 10 13 14 13 14 14 12 13 12 12 13 13 15 15 15 16 17 18 19 19 18 15 15 14 14 13 13 13 13 17 29 29 27
Wind_Direction
196 200 207 204 210 216 184 230 263 264 262 286 260 264 272 276 266 274 281 21 12 352 335 339 339 338 335 333 327 322 311 306 270 227 213 216 218 211 208 201 195 197 186 183
207 231 214 202 195 209 229 246 261 276 274 212 281 290 273 264 257 212 156 44 360 351 346 344 342 339 334 329 325 318 310 302 294 244 223 212 215 220 212 198 195 190 185 187
207 245 204 189 189 189 214 218 236 240 309 264 290 286 188 120 150 152 175 77 31 355 345 341 339 333 329 325 323 319 310 301 290 281 234 216 215 217 196 195 193 199 189 185
228 221 153 191 208 194 238 215 237 246 249 258 358 296 262 168 181 200 167 42 7 2 353 345 339 331 328 324 322 319 309 300 290 278 242 211 206 208 207 202 196 189 169 164
221 215 212 217 206 186 219 211 208 220 224 237 227 271 270 247 191 168 73 25 16 2 355 346 341 335 327 331 327 318 309 298 289 282 241 214 209 211 213 199 182 175 170 171
223 184 188 214 218 194 208 186 152 102 166 252 239 217 196 190 184 201 20 38 13 359 352 345 342 340 330 337 328 322 314 309 302 294 233 216 213 208 198 193 184 185 182 188
193 222 235 205 193 171 195 163 200 204 196 243 191 195 250 266 207 110 69 26 10 3 354 346 347 339 333 332 330 326 321 317 314 314 221 215 216 211 205 196 192 184 186 184
202 179 130 337 199 181 177 188 192 214 197 174 163 226 223 51 87 90 66 39 15 3 353 348 348 332 329 333 334 330 327 324 318 315 234 203 201 207 208 199 186 190 188 185
156 118 339 59 48 55 162 186 150 190 159 238 226 233 109 66 86 48 32 23 10 358 352 348 344 338 339 338 334 332 329 330 327 323 216 187 177 179 191 188 188 191 178 173
129 122 359 322 349 48 84 129 149 123 240 249 216 231 229 8 14 16 10 4 355 351 353 351 351 345 344 339 335 339 337 336 334 338 183 173 174 182 180 163 150 149 144 134
97 71 127 259 29 354 359 112 69 96 182 248 261 226 123 46 33 15 3 351 349 351 352 353 359 354 348 341 343 345 346 346 346 342 314 163 173 161 156 163 170 159 149 119
39 97 128 75 335 224 75 94 89 215 209 262 279 243 128 135 90 26 19 1 353 358 355 352 16 1 354 347 346 348 351 350 345 346 3 44 153 157 157 166 174 177 147 140
160 109 122 99 99 50 86 76 90 91 101 220 244 246 150 138 52 15 360 355 356 0 2 355 21 4 355 346 347 349 351 351 351 1 10 13 17 3 189 179 176 157 147 139
100 128 189 196 127 116 157 193 192 143 169 239 240 277 275 291 314 326 343 349 15 12 4 5 20 2 353 348 349 352 355 0 357 1 11 19 8 6 350 181 175 159 146 137
78 139 106 2 139 179 232 249 225 210 226 239 278 279 281 283 296 111 46 3 26 20 6 16 16 1 354 352 354 358 3 4 1 8 13 16 15 19 18 38 39 114 116 121
21 124 122 263 250 242 255 260 268 258 264 266 279 281 283 273 137 97 67 29 30 26 16 21 13 5 359 360 358 359 4 4 9 10 19 9 16 24 39 27 54 22 85 95
96 137 159 199 112 290 271 264 226 198 245 274 284 302 318 155 113 93 86 45 37 29 24 21 17 8 5 1 2 4 2 8 14 18 18 16 17 30 43 47 43 42 17 83
144 136 138 183 269 226 131 44 164 277 271 315 305 318 329 136 102 86 58 59 50 34 33 26 19 11 9 7 6 11 16 16 18 21 21 21 19 28 34 61 56 47 29 51
175 138 147 176 238 313 177 43 327 319 320 14 337 1 104 107 94 66 62 55 54 42 39 31 28 18 12 14 9 13 21 23 23 20 20 21 27 30 32 44 49 61 64 39
137 150 162 167 231 246 103 323 313 305 250 7 356 335 162 176 75 77 58 51 51 44 41 36 30 26 22 14 17 24 21 21 22 16 16 21 25 33 38 40 45 51 65 59
119 153 200 225 265 263 354 320 318 210 342 13 21 11 165 90 73 88 64 52 48 44 39 38 38 31 27 20 20 27 23 23 16 19 24 26 28 34 33 42 42 48 50 59
126 181 180 188 225 288 359 7 52 323 48 52 49 49 76 84 82 81 64 51 41 40 36 34 40 36 29 26 33 30 28 16 23 28 32 31 32 35 37 43 42 44 51 57
67 314 161 337 106 47 47 68 40 52 72 66 76 72 85 91 79 65 56 45 38 38 37 34 39 39 35 31 31 35 24 21 30 38 40 39 39 36 37 42 44 47 50 55
51 11 117 167 109 81 101 88 79 78 85 84 87 95 101 96 79 70 62 51 44 37 37 34 38 35 31 26 28 29 26 29 35 40 44 48 50 46 42 43 43 49 51 55
152 353 101 100 129 119 90 84 100 96 95 91 85 96 99 97 85 82 72 59 50 45 38 39 39 35 29 27 28 24 21 27 40 42 40 44 47 55 56 52 47 51 50 52
111 168 184 163 104 97 80 100 100 99 95 103 102 92 87 95 94 90 78 68 60 52 41 42 36 33 25 27 26 18 18 27 32 38 38 38 44 47 52 56 60 48 52 58